Location: Newcastle Observatory
(43.9158°N, 78.5831°W)
Time: 15:49:12
(UTC-04:00)

Amateur Radio Satellites - All Passes

Search period start: 31 August 2015 15:19
Search period end: 01 September 2015 15:19
Location: Newcastle Observatory, 43.9158°N, 78.5831°W

Satellite Date Start Highest point End Downlink Frequencies (MHz)
Time Altitude Azimuth
AO-7 31 Aug 15:19:19 15:27:10 49° 62° (ENE) 15:35:06 29.400- 29.500
ITAMSAT 1 31 Aug 15:27:55 15:32:52 44° 262° (W) 15:37:49 435.822/435.867
SWISSCUBE 31 Aug 15:33:08 15:37:51 62° 287° (WNW) 15:42:31 437.505
AIST 2 31 Aug 15:48:24 15:49:26 11° 109° (ESE) 15:50:41 435.215
STARS 31 Aug 16:08:07 16:12:01 30° 95° (E) 16:15:56 437.465
ITUPSAT 1 31 Aug 16:11:52 16:16:02 30° 293° (WNW) 16:20:08 437.325
RS-15 31 Aug 16:12:41 16:22:41 46° 111° (ESE) 16:33:12 29.354- 29.394
Cosmos 2499 31 Aug 16:13:02 16:21:50 85° 81° (E) 16:30:01 435.465 / 435.565
KKS-1 31 Aug 16:25:18 16:29:49 76° 103° (ESE) 16:34:18 437.445
ISS 31 Aug 16:26:15 16:29:15 34° 220° (SW) 16:32:14 145.825
MOZHAYETS 4 31 Aug 16:35:52 16:38:29 15° 89° (E) 16:41:17
HORYU 2 31 Aug 16:36:06 16:40:35 65° 258° (WSW) 16:45:05 437.375
BEESAT 3 31 Aug 16:38:36 16:42:26 38° 311° (NW) 16:46:17 437.485
JAS-2 31 Aug 16:43:54 16:50:34 30° 270° (W) 16:57:13 435.910
BEESAT 31 Aug 16:46:26 16:49:16 15° 299° (WNW) 16:51:56 436.000
BEESAT 2 31 Aug 16:50:02 16:53:54 39° 311° (NW) 16:57:48 435.950
GONETS M04 31 Aug 17:03:04 17:07:54 15° 284° (WNW) 17:12:11
Cubesat XI-IV 31 Aug 17:06:23 17:09:05 15° 59° (ENE) 17:12:00 437.490
AO-7 31 Aug 17:12:17 17:20:07 42° 262° (W) 17:27:53 29.400- 29.500
AIST 2 31 Aug 17:23:11 17:27:26 81° 306° (NW) 17:31:43 435.215
STARS 31 Aug 17:44:33 17:48:24 28° 292° (WNW) 17:52:10 437.465
CUTE-I 31 Aug 17:49:09 17:53:47 32° 66° (ENE) 17:58:30 437.470
KKS-1 31 Aug 18:03:46 18:05:54 13° 299° (WNW) 18:07:50 437.445
Cosmos 2499 31 Aug 18:07:51 18:13:56 21° 281° (WNW) 18:19:24 435.465 / 435.565
MOZHAYETS 4 31 Aug 18:11:39 18:16:09 56° 287° (WNW) 18:20:35
RS-15 31 Aug 18:24:01 18:34:52 59° 315° (NW) 18:46:12 29.354- 29.394
CUBESAT XI-V 31 Aug 18:28:01 18:31:28 21° 91° (E) 18:35:01 437.345
BRITE-PL 31 Aug 18:42:05 18:44:33 15° 61° (ENE) 18:47:17 437.365/2234.400
Cubesat XI-IV 31 Aug 18:43:12 18:48:32 87° 254° (WSW) 18:53:54 437.490
HO-68 31 Aug 18:53:31 18:57:30 17° 52° (NE) 19:01:48 435.675
AIST 2 31 Aug 19:04:22 19:06:43 14° 325° (NW) 19:08:58 435.215
GOMX 1 31 Aug 19:11:50 19:14:53 18° 63° (ENE) 19:18:14 467.674
AIST 1 31 Aug 19:13:40 19:17:34 32° 74° (ENE) 19:21:31
Cosmos 2491 31 Aug 19:17:38 19:24:25 25° 62° (ENE) 19:31:30 435.465 / 435.565
DOVE 4 31 Aug 19:27:01 19:29:51 17° 62° (ENE) 19:32:58 437.250
CUTE-I 31 Aug 19:28:58 19:33:50 35° 264° (W) 19:38:41 437.470
O/OREOS (USA 219) 31 Aug 19:31:16 19:35:40 53° 109° (ESE) 19:40:09 437.305
STRAND 1 31 Aug 19:47:46 19:52:23 34° 96° (E) 19:57:02 437.568
AAUSAT CUBESAT 2 31 Aug 19:56:13 19:56:33 10° 61° (ENE) 19:57:06 437.432
CUBESAT XI-V 31 Aug 20:04:43 20:09:08 43° 289° (WNW) 20:13:30 437.345
CINEMA 3 31 Aug 20:13:35 20:17:05 21° 64° (ENE) 20:20:47 145.822/145.860
BRITE-PL 31 Aug 20:18:12 20:22:31 63° 261° (W) 20:27:12 437.365/2234.400
CUTE 1.7 + AOD 2 31 Aug 20:19:22 20:23:12 33° 70° (ENE) 20:27:04 437.475
Cubesat XI-IV 31 Aug 20:27:45 20:29:32 11° 275° (W) 20:30:59 437.490
CANX-2 31 Aug 20:32:58 20:37:07 51° 73° (ENE) 20:41:18 2200.000
PRISM 31 Aug 20:36:53 20:41:01 77° 104° (ESE) 20:45:07 437.425
HO-68 31 Aug 20:37:04 20:44:11 73° 71° (ENE) 20:51:22 435.675
RS-15 31 Aug 20:41:02 20:50:25 28° 346° (NNW) 21:00:02 29.354- 29.394
GOMX 1 31 Aug 20:48:09 20:52:33 54° 261° (W) 20:57:20 467.674
AIST 1 31 Aug 20:51:40 20:55:04 22° 271° (W) 20:58:23
SEEDS 31 Aug 20:54:45 20:58:57 63° 75° (ENE) 21:03:10 437.485
Oscar 11 31 Aug 21:00:13 21:03:37 23° 67° (ENE) 21:07:06 145.826/435.025
DOVE 4 31 Aug 21:02:29 21:07:03 64° 260° (W) 21:11:58 437.250
O/OREOS (USA 219) 31 Aug 21:12:08 21:15:29 19° 309° (NW) 21:18:44 437.305
Cosmos 2491 31 Aug 21:13:38 21:22:24 77° 264° (W) 21:31:08 435.465 / 435.565
COMPASS 1 31 Aug 21:16:58 21:21:11 87° 77° (ENE) 21:25:25 437.405
YUBILEINY 31 Aug 21:22:22 21:30:47 55° 91° (E) 21:39:20 435.215
STRAND 1 31 Aug 21:27:03 21:31:33 31° 293° (WNW) 21:35:58 437.568
AAUSAT CUBESAT 2 31 Aug 21:27:21 21:31:33 85° 256° (WSW) 21:35:46 437.432
CUBEBUG 2 31 Aug 21:40:42 21:45:18 67° 74° (ENE) 21:50:03 437.445
ZACube-1 31 Aug 21:41:52 21:46:09 41° 71° (ENE) 21:50:30 437.345
FUNcube-1 31 Aug 21:47:16 21:51:35 45° 72° (ENE) 21:56:00 145.935
UWE-3 31 Aug 21:48:04 21:52:37 63° 73° (ENE) 21:57:15 435.000/436.395/437.385
CINEMA 3 31 Aug 21:49:22 21:53:55 48° 262° (W) 21:58:41 145.822/145.860
DELFI C3 31 Aug 21:52:46 21:56:42 51° 74° (ENE) 22:00:39 145.870
CUTE 1.7 + AOD 2 31 Aug 21:55:40 21:59:11 23° 267° (W) 22:02:35 437.475
CANX-2 31 Aug 22:10:45 22:13:23 15° 271° (W) 22:15:52 2200.000
PRISM 31 Aug 22:14:42 22:15:54 11° 299° (WNW) 22:16:55 437.425
Cosmos 2504 31 Aug 22:16:06 22:20:18 16° 76° (ENE) 22:25:06 435.465 / 435.565
HO-68 31 Aug 22:27:12 22:32:41 22° 270° (W) 22:37:56 435.675
DX 1 31 Aug 22:27:39 22:31:25 30° 68° (ENE) 22:35:16 434.975-435.025
HUMSAT D 31 Aug 22:28:05 22:32:15 50° 73° (ENE) 22:36:29 437.325/437.525
50 SAT 31 Aug 22:33:13 22:36:23 24° 68° (ENE) 22:39:37 437.505
SEEDS 31 Aug 22:33:23 22:35:14 12° 272° (W) 22:36:51 437.485
Oscar 11 31 Aug 22:35:37 22:39:38 35° 264° (W) 22:43:38 145.826/435.025
ESTCUBE 1 31 Aug 22:36:25 22:39:30 19° 65° (ENE) 22:42:45 437.505/2401.250
UKube-1 31 Aug 22:40:13 22:44:11 37° 70° (ENE) 22:48:11 .
AISAT 31 Aug 22:49:05 22:53:02 33° 69° (ENE) 22:57:03 437.250
CUBEBUG 1 31 Aug 22:50:49 22:54:01 21° 66° (ENE) 22:57:20 437.445
RS-15 31 Aug 22:57:42 23:07:32 31° 20° (NNE) 23:17:53 29.354- 29.394
UNISAT 6 31 Aug 22:59:51 23:03:25 23° 92° (E) 23:07:01 437.425
Cosmos 2491 31 Aug 23:13:07 23:17:57 15° 284° (WNW) 23:22:13 435.465 / 435.565
VELOX 1 31 Aug 23:16:52 23:21:13 62° 73° (ENE) 23:25:36 145.980
BEESAT 3 31 Aug 23:18:00 23:21:20 24° 43° (NE) 23:24:41 437.485
ZACube-1 31 Aug 23:19:09 23:22:41 21° 269° (W) 23:26:09 437.345
CUBEBUG 2 31 Aug 23:20:02 23:22:33 14° 273° (W) 23:24:51 437.445
YUBILEINY 31 Aug 23:20:04 23:28:03 36° 292° (WNW) 23:35:57 435.215
FUNcube-1 31 Aug 23:24:50 23:28:10 19° 270° (W) 23:31:25 145.935
UWE-3 31 Aug 23:26:59 23:29:38 15° 272° (W) 23:32:06 435.000/436.395/437.385
TIGRISAT 31 Aug 23:27:56 23:32:18 42° 97° (E) 23:36:33 435.000
BEESAT 2 31 Aug 23:29:56 23:33:18 25° 43° (NE) 23:36:40 435.950
DELFI C3 31 Aug 23:29:58 23:32:07 14° 271° (W) 23:34:05 145.870
ANTELSAT 31 Aug 23:44:53 23:49:28 66° 101° (E) 23:53:55 437.575/2403.000
TISAT 1 31 Aug 23:51:30 23:54:10 17° 65° (ENE) 23:56:59 437.305
Cosmos 2504 01 Sep 00:03:03 00:11:10 78° 95° (E) 00:19:47 435.465 / 435.565
DX 1 01 Sep 00:04:00 00:07:41 26° 266° (W) 00:11:19 434.975-435.025
HUMSAT D 01 Sep 00:05:33 00:08:19 16° 270° (W) 00:10:55 437.325/437.525
AIST 2 01 Sep 00:06:10 00:08:44 16° 36° (NE) 00:11:22 435.215
50 SAT 01 Sep 00:07:19 00:10:48 28° 264° (W) 00:14:15 437.505
POLYITAN 1 01 Sep 00:09:20 00:13:28 43° 98° (E) 00:17:35 437.675
AUBIESAT-1 01 Sep 00:10:34 00:14:32 65° 106° (ESE) 00:18:09 437.475
ESTCUBE 1 01 Sep 00:11:45 00:16:05 47° 262° (W) 00:20:25 437.505/2401.250
POPSAT HIP 1 01 Sep 00:11:56 00:16:05 45° 99° (E) 00:20:13 437.405
DUCHIFAT 1 01 Sep 00:12:27 00:16:34 44° 98° (E) 00:20:40 145.980
M-CUBED/EXP-1 PRIME 01 Sep 00:15:49 00:19:54 89° 291° (WNW) 00:23:36 437.505
UKube-1 01 Sep 00:17:05 00:20:26 21° 267° (W) 00:23:43 .
BUGSAT 1 01 Sep 00:20:22 00:24:15 34° 97° (E) 00:28:09 437.445
SPROUT 01 Sep 00:21:20 00:25:32 57° 73° (ENE) 00:29:48 437.525
AISAT 01 Sep 00:26:02 00:29:41 24° 266° (W) 00:33:17 437.250
CUBEBUG 1 01 Sep 00:26:06 00:30:09 39° 263° (W) 00:34:14 437.445
QB50P2 01 Sep 00:28:48 00:33:07 73° 102° (ESE) 00:37:24 145.880/145.840
NANOSAT C BR1 01 Sep 00:29:50 00:34:09 71° 102° (ESE) 00:38:25 145.865
UNISAT 6 01 Sep 00:36:06 00:40:22 38° 290° (WNW) 00:44:29 437.425
SO-50 01 Sep 00:38:22 00:41:08 16° 110° (ESE) 00:44:09 436.795
BEESAT 01 Sep 00:40:42 00:42:25 12° 59° (ENE) 00:44:22 436.000
QB50P1 01 Sep 00:43:30 00:47:50 81° 284° (WNW) 00:52:07 145.935-145.965
CUSAT 1 01 Sep 00:52:07 00:56:03 88° 89° (E) 01:01:24 437.405
BEESAT 3 01 Sep 00:55:36 00:59:23 38° 242° (WSW) 01:03:05 437.485
VELOX 1 01 Sep 00:56:03 00:58:15 13° 272° (W) 01:00:15 145.980
SWISSCUBE 01 Sep 01:04:33 01:08:06 22° 65° (ENE) 01:11:46 437.505
TIGRISAT 01 Sep 01:05:15 01:08:47 22° 295° (WNW) 01:12:09 435.000
BEESAT 2 01 Sep 01:07:40 01:11:28 38° 242° (WSW) 01:15:11 435.950
RS-15 01 Sep 01:10:54 01:22:41 69° 49° (NE) 01:34:54 29.354- 29.394
DANDE 01 Sep 01:20:38 01:24:08 75° 282° (WNW) 01:28:52 436.750
ANTELSAT 01 Sep 01:23:05 01:25:43 15° 298° (WNW) 01:28:10 437.575/2403.000
TISAT 1 01 Sep 01:25:31 01:29:35 48° 261° (W) 01:33:43 437.305
PCSat 01 Sep 01:38:25 01:42:42 25° 109° (ESE) 01:47:06 145.827
ITUPSAT 1 01 Sep 01:41:59 01:46:28 43° 70° (ENE) 01:51:00 437.325
AIST 2 01 Sep 01:43:41 01:47:53 82° 237° (WSW) 01:52:00 435.215
POLYITAN 1 01 Sep 01:45:58 01:49:04 19° 295° (WNW) 01:52:04 437.675
AUBIESAT-1 01 Sep 01:46:56 01:48:40 12° 305° (NW) 01:50:14 437.475
POPSAT HIP 1 01 Sep 01:48:36 01:51:39 19° 295° (WNW) 01:54:34 437.405
DUCHIFAT 1 01 Sep 01:49:01 01:52:04 19° 295° (WNW) 01:55:00 145.980
BUGSAT 1 01 Sep 01:56:08 01:59:34 23° 293° (WNW) 02:02:54 437.445
Cosmos 2504 01 Sep 01:57:47 02:04:29 25° 298° (WNW) 02:11:08 435.465 / 435.565
SPROUT 01 Sep 01:59:46 02:02:03 14° 272° (W) 02:04:09 437.525
QB50P2 01 Sep 02:06:35 02:08:28 12° 298° (WNW) 02:10:11 145.880/145.840
NANOSAT C BR1 01 Sep 02:07:30 02:09:27 13° 298° (WNW) 02:11:13 145.865
GONETS M04 01 Sep 02:11:44 02:18:21 26° 82° (E) 02:25:18
BEESAT 01 Sep 02:14:50 02:19:37 89° 269° (W) 02:24:26 436.000
SO-50 01 Sep 02:16:21 02:21:09 72° 307° (NW) 02:26:06 436.795
CUSAT 1 01 Sep 02:38:43 02:40:05 11° 309° (NW) 02:41:16 437.405
Oscar 19 01 Sep 02:39:54 02:45:05 65° 101° (E) 02:50:15 437.125/150
SWISSCUBE 01 Sep 02:41:06 02:45:42 46° 261° (W) 02:50:17 437.505
Cosmos 2499 01 Sep 03:02:48 03:06:16 14° 74° (ENE) 03:10:25 435.465 / 435.565
STARS 01 Sep 03:06:16 03:10:09 32° 68° (ENE) 03:14:07 437.465
PCSat 01 Sep 03:20:33 03:25:49 52° 306° (NW) 03:31:08 145.827
ITUPSAT 1 01 Sep 03:20:50 03:24:34 22° 268° (W) 03:28:13 437.325
Gurwin Techsat 1B 01 Sep 03:21:37 03:26:47 50° 99° (E) 03:31:57 435.225
AO-7 01 Sep 03:23:02 03:24:50 11° 82° (E) 03:27:24 29.400- 29.500
RS-15 01 Sep 03:23:58 03:34:41 40° 251° (WSW) 03:45:25 29.354- 29.394
KKS-1 01 Sep 03:24:32 03:28:59 81° 75° (ENE) 03:33:29 437.445
ITAMSAT 1 01 Sep 03:38:57 03:44:04 58° 101° (E) 03:49:12 435.822/435.867
MOZHAYETS 4 01 Sep 03:39:13 03:42:20 19° 65° (ENE) 03:45:35
JAS-2 01 Sep 03:51:51 03:58:39 48° 96° (E) 04:04:41 435.910
SO-50 01 Sep 03:59:33 04:02:38 16° 328° (NNW) 04:05:38 436.795
O/OREOS (USA 219) 01 Sep 04:01:29 04:04:28 17° 50° (NE) 04:07:36 437.305
GONETS M04 01 Sep 04:05:51 04:14:31 70° 282° (WNW) 04:23:14
Oscar 19 01 Sep 04:20:23 04:23:59 19° 298° (WNW) 04:27:24 437.125/150
HORYU 2 01 Sep 04:26:34 04:29:58 21° 93° (E) 04:33:26 437.375
STARS 01 Sep 04:42:52 04:46:37 26° 266° (W) 04:50:20 437.465
Cosmos 2499 01 Sep 04:49:31 04:57:52 68° 94° (E) 05:06:42 435.465 / 435.565
VERMONT LUNAR 01 Sep 04:50:29 04:53:04 27° 165° (SSE) 04:55:41 437.305
Gurwin Techsat 1B 01 Sep 05:02:16 05:06:30 24° 296° (WNW) 05:10:35 435.225
KKS-1 01 Sep 05:05:40 05:06:18 10° 274° (W) 05:06:38 437.445
PCSat 01 Sep 05:08:15 05:10:38 13° 329° (NNW) 05:12:51 145.827
AO-7 01 Sep 05:11:23 05:19:37 63° 103° (ESE) 05:27:49 29.400- 29.500
MOZHAYETS 4 01 Sep 05:14:43 05:19:13 51° 261° (W) 05:23:43
ITAMSAT 1 01 Sep 05:19:24 05:23:12 20° 298° (WNW) 05:26:52 435.822/435.867
CUBESAT XI-V 01 Sep 05:32:53 05:36:31 24° 67° (ENE) 05:40:15 437.345
JAS-2 01 Sep 05:37:12 05:43:29 34° 298° (WNW) 05:49:03 435.910
PHONESAT 2.4 01 Sep 05:38:33 05:39:51 12° 151° (SSE) 05:41:14 2401.200-2431.200
O/OREOS (USA 219) 01 Sep 05:39:50 05:44:25 63° 250° (WSW) 05:48:56 437.305
HORYU 2 01 Sep 06:02:35 06:06:46 39° 290° (WNW) 06:10:52 437.375
CUTE-I 01 Sep 06:07:34 06:08:12 10° 85° (E) 06:09:12 437.470
GONETS M04 01 Sep 06:08:26 06:13:27 15° 307° (NW) 06:18:00
VERMONT LUNAR 01 Sep 06:26:21 06:29:12 42° 181° (S) 06:32:03 437.305
Cosmos 2499 01 Sep 06:44:30 06:51:53 30° 296° (WNW) 06:59:19 435.465 / 435.565
Cubesat XI-IV 01 Sep 06:59:20 07:04:06 33° 95° (E) 07:08:55 437.490
AO-7 01 Sep 07:04:47 07:12:01 34° 303° (WNW) 07:19:03 29.400- 29.500
STRAND 1 01 Sep 07:04:53 07:09:51 57° 72° (ENE) 07:14:52 437.568
CUBESAT XI-V 01 Sep 07:09:31 07:13:47 37° 263° (W) 07:18:04 437.345
PHONESAT 2.4 01 Sep 07:14:04 07:17:10 33° 166° (SSE) 07:20:18 2401.200-2431.200
PRISM 01 Sep 07:27:56 07:31:59 67° 75° (ENE) 07:36:04 437.425
YUBILEINY 01 Sep 07:30:59 07:38:21 29° 64° (ENE) 07:45:53 435.215
CUTE-I 01 Sep 07:43:53 07:49:14 82° 103° (ESE) 07:54:35 437.470
AIST 1 01 Sep 07:45:39 07:48:27 18° 88° (E) 07:51:23
VERMONT LUNAR 01 Sep 08:02:47 08:05:19 25° 197° (SSW) 08:07:49 437.305
HO-68 01 Sep 08:06:55 08:08:38 11° 82° (E) 08:10:55 435.675
BRITE-PL 01 Sep 08:20:36 08:25:47 41° 96° (E) 08:31:10 437.365/2234.400
Cosmos 2491 01 Sep 08:21:55 08:28:32 26° 82° (E) 08:35:27 435.465 / 435.565
Cubesat XI-IV 01 Sep 08:39:25 08:44:13 34° 293° (WNW) 08:48:57 437.490
STRAND 1 01 Sep 08:45:55 08:49:30 18° 270° (W) 08:52:55 437.568
GOMX 1 01 Sep 08:47:54 08:53:06 44° 97° (E) 08:58:22 467.674
PHONESAT 2.4 01 Sep 08:51:29 08:54:46 46° 182° (S) 08:58:03 2401.200-2431.200
DOVE 4 01 Sep 08:59:59 09:04:50 35° 95° (E) 09:09:41 437.250
COMPASS 1 01 Sep 09:00:46 09:02:27 12° 88° (E) 09:04:21 437.405
ISS 01 Sep 09:06:05 09:08:58 30° 139° (SE) 09:11:55 145.825
SO-50 01 Sep 09:06:40 09:10:49 26° 40° (NE) 09:14:57 436.795
PRISM 01 Sep 09:06:52 09:07:57 11° 272° (W) 09:08:48 437.425
AAUSAT CUBESAT 2 01 Sep 09:10:23 09:12:22 13° 89° (E) 09:14:32 437.432
AIST 1 01 Sep 09:21:49 09:25:49 39° 284° (WNW) 09:29:50
CUTE-I 01 Sep 09:25:35 09:28:43 16° 301° (WNW) 09:31:39 437.470
AUBIESAT-1 01 Sep 09:25:55 09:28:31 15° 57° (ENE) 09:31:15 437.475
YUBILEINY 01 Sep 09:27:15 09:36:01 67° 267° (W) 09:44:40 435.215
M-CUBED/EXP-1 PRIME 01 Sep 09:30:48 09:34:08 20° 59° (ENE) 09:37:33 437.505
CUBEBUG 2 01 Sep 09:32:17 09:34:31 14° 87° (E) 09:36:57 437.445
CUTE 1.7 + AOD 2 01 Sep 09:38:26 09:42:35 53° 100° (E) 09:46:42 437.475
UWE-3 01 Sep 09:38:55 09:40:31 12° 86° (E) 09:42:22 435.000/436.395/437.385
CINEMA 3 01 Sep 09:42:50 09:47:32 39° 96° (E) 09:52:08 145.822/145.860
CUSAT 1 01 Sep 09:43:32 09:48:36 19° 59° (ENE) 09:54:17 437.405
Cosmos 2504 01 Sep 09:48:43 09:55:48 29° 64° (ENE) 10:02:46 435.465 / 435.565
HO-68 01 Sep 09:50:43 09:57:55 68° 103° (ESE) 10:05:05 435.675
CANX-2 01 Sep 09:52:27 09:56:43 85° 101° (E) 10:00:55 2200.000
BRITE-PL 01 Sep 09:59:22 10:04:10 31° 292° (WNW) 10:09:02 437.365/2234.400
UNISAT 6 01 Sep 09:59:55 10:03:44 26° 67° (ENE) 10:07:39 437.425
SEEDS 01 Sep 10:13:12 10:17:25 79° 283° (WNW) 10:21:34 437.485
DANDE 01 Sep 10:14:00 10:19:26 22° 63° (ENE) 10:25:42 436.750
Cosmos 2491 01 Sep 10:16:02 10:24:43 70° 282° (WNW) 10:33:26 435.465 / 435.565
Oscar 11 01 Sep 10:21:16 10:25:15 36° 97° (E) 10:29:14 145.826/435.025
PCSat 01 Sep 10:23:54 10:28:40 30° 46° (NE) 10:33:28 145.827
GOMX 1 01 Sep 10:26:24 10:31:01 28° 293° (WNW) 10:35:36 467.674
TIGRISAT 01 Sep 10:27:33 10:31:59 45° 71° (ENE) 10:36:30 435.000
PHONESAT 2.4 01 Sep 10:29:24 10:32:18 26° 199° (SSW) 10:35:12 2401.200-2431.200
COMPASS 1 01 Sep 10:34:28 10:38:34 58° 286° (WNW) 10:42:37 437.405
DOVE 4 01 Sep 10:37:46 10:42:31 33° 292° (WNW) 10:47:10 437.250
ISS 01 Sep 10:42:12 10:45:20 42° 337° (NNW) 10:48:27 145.825
AAUSAT CUBESAT 2 01 Sep 10:44:19 10:48:22 53° 287° (WNW) 10:52:22 437.432
ANTELSAT 01 Sep 10:44:36 10:49:16 69° 74° (ENE) 10:53:59 437.575/2403.000
SO-50 01 Sep 10:46:50 10:51:41 55° 240° (WSW) 10:56:23 436.795
AUBIESAT-1 01 Sep 10:57:57 11:02:43 78° 254° (WSW) 11:07:22 437.475
POLYITAN 1 01 Sep 11:03:29 11:07:27 39° 70° (ENE) 11:11:30 437.675
M-CUBED/EXP-1 PRIME 01 Sep 11:03:47 11:08:31 59° 254° (WSW) 11:13:13 437.505
DELFI C3 01 Sep 11:05:01 11:09:01 73° 101° (ESE) 11:12:59 145.870
ZACube-1 01 Sep 11:05:08 11:09:39 72° 101° (ESE) 11:14:03 437.345
POPSAT HIP 1 01 Sep 11:05:52 11:09:51 40° 71° (ENE) 11:13:54 437.405
DUCHIFAT 1 01 Sep 11:05:56 11:09:52 39° 71° (ENE) 11:13:52 145.980
CUBEBUG 2 01 Sep 11:07:05 11:11:47 66° 286° (WNW) 11:16:19 437.445
VELOX 1 01 Sep 11:08:31 11:09:25 11° 87° (E) 11:10:36 145.980
FUNcube-1 01 Sep 11:10:18 11:14:50 79° 102° (ESE) 11:19:12 145.935
BUGSAT 1 01 Sep 11:11:54 11:15:22 28° 69° (ENE) 11:18:57 437.445
UWE-3 01 Sep 11:13:04 11:17:42 73° 284° (WNW) 11:22:09 435.000/436.395/437.385
CUTE 1.7 + AOD 2 01 Sep 11:15:31 11:18:06 16° 296° (WNW) 11:20:33 437.475
CINEMA 3 01 Sep 11:20:20 11:24:32 27° 294° (WNW) 11:28:35 145.822/145.860
QB50P2 01 Sep 11:22:42 11:26:55 65° 75° (ENE) 11:31:11 145.880/145.840
NANOSAT C BR1 01 Sep 11:23:21 11:27:32 62° 74° (ENE) 11:31:46 145.865
CUSAT 1 01 Sep 11:24:33 11:32:19 79° 78° (ENE) 11:40:37 437.405
YUBILEINY 01 Sep 11:27:34 11:31:17 13° 286° (WNW) 11:34:21 435.215
CANX-2 01 Sep 11:31:19 11:32:02 10° 299° (WNW) 11:32:31 2200.000
UNISAT 6 01 Sep 11:35:59 11:40:20 37° 264° (W) 11:44:43 437.425
QB50P1 01 Sep 11:37:10 11:41:25 89° 85° (E) 11:45:44 145.935-145.965
HO-68 01 Sep 11:39:16 11:45:09 27° 302° (WNW) 11:50:52 435.675
Cosmos 2504 01 Sep 11:40:22 11:48:49 67° 267° (W) 11:56:43 435.465 / 435.565
50 SAT 01 Sep 11:40:43 11:44:01 27° 95° (E) 11:47:20 437.505
HUMSAT D 01 Sep 11:46:08 11:50:25 79° 102° (ESE) 11:54:36 437.325/437.525
DX 1 01 Sep 11:50:01 11:54:15 46° 99° (E) 11:58:29 434.975-435.025
DANDE 01 Sep 11:55:51 12:03:25 89° 77° (ENE) 12:11:59 436.750
Oscar 11 01 Sep 11:57:51 12:01:15 22° 293° (WNW) 12:04:32 145.826/435.025
UKube-1 01 Sep 12:01:46 12:06:04 55° 101° (E) 12:10:20 .
ESTCUBE 1 01 Sep 12:03:00 12:07:00 31° 96° (E) 12:11:03 437.505/2401.250
TIGRISAT 01 Sep 12:05:23 12:08:58 21° 269° (W) 12:12:27 435.000
PCSat 01 Sep 12:07:05 12:12:18 47° 246° (WSW) 12:17:26 145.827
CUBEBUG 1 01 Sep 12:13:15 12:17:14 33° 96° (E) 12:21:16 437.445
AISAT 01 Sep 12:14:05 12:18:31 56° 100° (E) 12:22:56 437.250
Cosmos 2491 01 Sep 12:18:37 12:23:39 15° 307° (NW) 12:28:13 435.465 / 435.565
ISS 01 Sep 12:19:46 12:22:19 21° 356° (N) 12:24:53 145.825
GONETS M04 01 Sep 12:19:46 12:23:50 14° 52° (NE) 12:28:28
Oscar 19 01 Sep 12:21:34 12:24:28 16° 60° (ENE) 12:27:35 437.125/150
ANTELSAT 01 Sep 12:24:07 12:26:36 14° 273° (W) 12:28:50 437.575/2403.000
POLYITAN 1 01 Sep 12:40:21 12:43:32 20° 268° (W) 12:46:39 437.675
VELOX 1 01 Sep 12:42:07 12:46:36 78° 285° (WNW) 12:51:04 145.980
DELFI C3 01 Sep 12:42:30 12:43:33 11° 298° (WNW) 12:44:23 145.870
DUCHIFAT 1 01 Sep 12:42:42 12:45:51 19° 268° (W) 12:48:55 145.980
POPSAT HIP 1 01 Sep 12:42:49 12:45:55 19° 269° (W) 12:48:56 437.405
ZACube-1 01 Sep 12:43:11 12:45:26 13° 298° (WNW) 12:47:30 437.345
BUGSAT 1 01 Sep 12:47:24 12:50:50 25° 266° (W) 12:54:16 437.445
FUNcube-1 01 Sep 12:48:37 12:50:32 12° 299° (WNW) 12:52:14 145.935
QB50P2 01 Sep 13:01:31 13:03:20 12° 272° (W) 13:04:55 145.880/145.840
NANOSAT C BR1 01 Sep 13:01:56 13:03:51 12° 272° (W) 13:05:33 145.865
Gurwin Techsat 1B 01 Sep 13:07:36 13:10:05 14° 58° (ENE) 13:12:48 435.225
CUSAT 1 01 Sep 13:08:11 13:14:21 25° 274° (W) 13:20:29 437.405
TISAT 1 01 Sep 13:08:50 13:12:14 23° 93° (E) 13:15:43 437.305
50 SAT 01 Sep 13:15:18 13:18:27 23° 292° (WNW) 13:21:31 437.505
ITAMSAT 1 01 Sep 13:21:53 13:24:37 15° 59° (ENE) 13:27:33 435.822/435.867
HUMSAT D 01 Sep 13:24:11 13:25:33 11° 299° (WNW) 13:26:43 437.325/437.525
DX 1 01 Sep 13:27:03 13:30:11 19° 296° (WNW) 13:33:12 434.975-435.025
Cosmos 2504 01 Sep 13:36:01 13:39:28 13° 286° (WNW) 13:42:14 435.465 / 435.565
UKube-1 01 Sep 13:39:04 13:41:47 16° 297° (WNW) 13:44:21 .
ESTCUBE 1 01 Sep 13:39:58 13:43:47 27° 293° (WNW) 13:47:33 437.505/2401.250
DANDE 01 Sep 13:40:27 13:46:01 21° 274° (W) 13:51:38 436.750
SPROUT 01 Sep 13:42:17 13:46:40 86° 285° (WNW) 13:51:00 437.525
CUBEBUG 1 01 Sep 13:49:49 13:53:28 25° 293° (WNW) 13:57:04 437.445
AISAT 01 Sep 13:51:46 13:54:41 17° 297° (WNW) 13:57:27 437.250
ISS 01 Sep 13:56:33 13:59:26 28° 16° (NNE) 14:02:19 145.825
Oscar 19 01 Sep 13:58:05 14:03:15 78° 257° (WSW) 14:08:29 437.125/150
JAS-2 01 Sep 14:04:07 14:10:36 31° 61° (ENE) 14:17:16 435.910
GONETS M04 01 Sep 14:14:13 14:22:58 65° 77° (ENE) 14:31:44
BEESAT 01 Sep 14:14:26 14:17:57 21° 92° (E) 14:21:35 436.000
AO-7 01 Sep 14:21:55 14:28:00 24° 52° (NE) 14:34:21 29.400- 29.500
SWISSCUBE 01 Sep 14:39:50 14:44:18 40° 97° (E) 14:48:47 437.505
Cosmos 2499 01 Sep 14:40:05 14:47:12 28° 63° (ENE) 14:54:11 435.465 / 435.565
Gurwin Techsat 1B 01 Sep 14:44:03 14:49:22 89° 83° (E) 14:54:44 435.225
TISAT 1 01 Sep 14:44:12 14:48:04 33° 290° (WNW) 14:51:53 437.305
BEESAT 3 01 Sep 14:49:16 14:52:35 25° 115° (ESE) 14:55:58 437.485
ITAMSAT 1 01 Sep 14:58:20 15:03:31 82° 256° (WSW) 15:08:44 435.822/435.867
BEESAT 2 01 Sep 15:02:16 15:05:39 26° 115° (ESE) 15:09:07 435.950
